Location: Unspecified
(44.8040°N, 0.0000°E)
Time: 15:39:22
(UTC+00:00)

RS-15 - Visible Passes

Search period start: 04 April 2026 00:00
Search period end: 14 April 2026 00:00
Orbit: 1893 x 2151 km, 64.8° (Epoch: 29 March)

Date Brightness Start Highest point End Pass type
(mag) Time Alt. Az. Time Alt. Az. Time Alt. Az.
4 Apr 7.9 02:02:10 10° NW 02:13:33 66° WSW 02:17:45 45° S visible
4 Apr 9.1 04:17:49 10° WNW 04:23:38 15° W 04:25:17 15° WSW visible
4 Apr 9.1 18:40:49 10° WSW 18:51:05 43° NW 19:01:47 10° NE visible
4 Apr 9.5 20:58:18 10° WNW 21:07:25 27° N 21:16:52 10° NE visible
4 Apr 8.9 23:13:19 10° NW 23:23:57 41° NNE 23:33:35 14° E visible
5 Apr 7.9 01:26:00 10° NW 01:37:36 81° WSW 01:41:12 53° SSE visible
5 Apr 8.9 03:40:14 10° NW 03:48:15 22° W 03:48:49 22° WSW visible
5 Apr 9.5 20:21:15 10° WNW 20:30:26 28° N 20:39:56 10° NE visible
5 Apr 9.1 22:37:01 10° NW 22:47:15 36° NNE 22:57:34 11° E visible
6 Apr 8.0 00:49:54 10° NW 01:01:32 84° NE 01:05:14 53° SE visible
6 Apr 8.6 03:03:21 10° NW 03:12:45 30° WSW 03:12:52 30° WSW visible
6 Apr 9.5 19:44:08 10° WNW 19:53:29 30° NNW 20:03:11 10° NE visible
6 Apr 9.2 22:00:36 10° NW 22:10:27 32° NNE 22:20:40 10° E visible
7 Apr 8.1 00:13:47 10° NW 00:25:21 71° NE 00:29:32 47° ESE visible
7 Apr 8.4 02:26:48 10° NW 02:37:07 39° WSW 02:37:13 39° WSW visible
7 Apr 9.4 19:07:00 10° W 19:16:36 32° NNW 19:26:35 10° NE visible
7 Apr 9.3 21:24:03 10° NW 21:33:34 29° NNE 21:43:24 10° ENE visible
7 Apr 8.4 23:37:41 10° NW 23:49:03 59° NE 23:54:02 38° ESE visible
8 Apr 8.1 01:50:26 10° NW 02:01:24 50° WSW 02:01:43 50° WSW visible
8 Apr 9.4 20:47:19 10° NW 20:56:35 28° N 21:06:10 10° ENE visible
8 Apr 8.6 23:01:33 10° NW 23:12:37 49° NE 23:18:39 30° E visible
9 Apr 7.9 01:14:11 10° NW 01:25:34 64° WSW 01:26:20 63° SW visible
9 Apr 9.3 03:30:11 10° WNW 03:34:02 14° W 03:34:02 14° W visible
9 Apr 9.5 20:10:27 10° NW 20:19:35 27° N 20:29:03 10° NE visible
9 Apr 8.8 22:25:21 10° NW 22:36:04 42° NNE 22:43:21 22° E visible
10 Apr 7.9 00:38:02 10° NW 00:49:37 78° WSW 00:51:03 71° S visible
10 Apr 9.1 02:52:25 10° WNW 02:58:46 21° W 02:58:46 21° W visible
10 Apr 9.5 19:33:25 10° WNW 19:42:35 28° N 19:52:05 10° NE visible
10 Apr 9.0 21:49:04 10° NW 21:59:23 37° NNE 22:08:08 16° E visible
11 Apr 7.9 00:01:55 10° NW 00:13:34 86° NE 00:15:51 66° SE visible
11 Apr 8.8 02:15:28 10° NW 02:23:33 28° W 02:23:33 28° W visible
11 Apr 9.5 18:56:18 10° WNW 19:05:38 29° NNW 19:15:18 10° NE visible
11 Apr 9.2 21:12:40 10° NW 21:22:36 33° NNE 21:32:53 10° E visible
11 Apr 8.1 23:25:49 10° NW 23:37:24 72° NE 23:40:42 54° ESE visible
12 Apr 8.5 01:38:52 10° NW 01:48:24 38° W 01:48:24 38° W visible
12 Apr 9.3 20:36:08 10° NW 20:45:42 30° NNE 20:55:37 10° ENE visible
12 Apr 8.3 22:49:42 10° NW 23:01:07 60° NE 23:05:35 42° ESE visible
13 Apr 8.2 01:02:29 10° NW 01:13:18 49° WSW 01:13:18 49° WSW visible
13 Apr 9.4 19:59:27 10° NW 20:08:45 28° N 20:18:23 10° ENE visible
13 Apr 8.5 22:13:34 10° NW 22:24:43 51° NE 22:30:31 31° E visible
